Weather in Anenii Noi

Moldova     46°52′39″N   29°14′19″E
temp.,
°C
wind,
m/s
gust,
m/s
humid.,
%
clouds,
%
prec.,
mm/h
press.,
hPa
HPBL,
m
10 may, mon
mon1000:00+9sse22534 0.0 102610
03:00+8s22564 0.0 102610
06:00+7sse11635 0.0 102610
09:00+13s225016 0.0 1026344
12:00+17sse32385 0.0 10251697
15:00+19sse22355 0.0 10241983
18:00+19ese11363 0.0 10221959
21:00+14e23505 0.0 102217
11 may, tue
tue1100:00+11ene11651 0.0 102213
03:00+9ene22721 0.0 102226
06:00+8ne11680 0.0 102212
09:00+14nne34510 0.0 1021552
12:00+18n443834 0.0 10201078
15:00+20n444629 0.0 10181165
18:00+20n45517 0.0 10161396
21:00+16n33755 0.0 101645
12 may, wed
wed1200:00+13ne228942 0.2 101524
03:00+13ene2590100 0.2 1013188
06:00+12ene5788100 0.0 1013440
09:00+9e5886100 0.6 1014489
12:00+10se2479100 0.4 1014361
15:00+11ssw2376100 0.4 1013294
18:00+12ese117591 0.0 1012103
21:00+10sse2384100 0.8 101293
13 may, thu
thu1300:00+10ese2791100 1.2 1011295
03:00+10ese3887100 1.3 1010337
06:00+9ese3887100 0.0 1009234
09:00+12ese4779100 0.3 1010428
12:00+16se8105697 0.1 10081322
15:00+20sse794986 0.1 10071903
18:00+18se6753100 0.0 10061068
21:00+12se347466 0.0 100748
14 may, fri
fri1400:00+11sse348779 0.0 100767
03:00+10sse229340 0.0 100733
06:00+11sse22935 0.0 100727
09:00+17ssw3472100 0.0 1008534
12:00+21ssw3353100 0.0 10081332
15:00+23ssw2243100 0.0 10082092
18:00+22s225597 0.0 100874
21:00+15w1290100 3.4 101082